This is the latest recevied weather packets stored in our database for station/object N9WHM. If no packets are shown the sender has not sent any weather packets the latest 10 day(s).
| Time | Temp. | Humidity | Pressure | Rain* | Wind** | Luminosity | Snow |
|---|---|---|---|---|---|---|---|
| 1778199018 | 20.56° C | 22% | 1008.6 hPa | 0 mm | - | 96 W/m² | - |
| 1778198714 | 20.56° C | 22% | 1008.7 hPa | 0 mm | - | 107 W/m² | - |
| 1778198412 | 20.56° C | 23% | 1008.8 hPa | 0 mm | - | 117 W/m² | - |
| 1778198108 | 20.56° C | 24% | 1009 hPa | 0 mm | - | 130 W/m² | - |
| 1778197806 | 20.56° C | 24% | 1008.5 hPa | 0 mm | - | 141 W/m² | - |
| 1778197502 | 20.56° C | 22% | 1008.7 hPa | 0 mm | - | 152 W/m² | - |
| 1778197199 | 20.56° C | 22% | 1008.9 hPa | 0 mm | - | 164 W/m² | - |
| 1778196895 | 20.56° C | 23% | 1008.7 hPa | 0 mm | - | 176 W/m² | - |
| 1778196594 | 20.56° C | 24% | 1008.5 hPa | 0 mm | - | 189 W/m² | - |
| 1778196285 | 20.56° C | 22% | 1008.6 hPa | 0 mm | - | 204 W/m² | - |
| 1778195982 | 21.11° C | 23% | 1008.7 hPa | 0 mm | - | 218 W/m² | - |
| 1778195673 | 20.56° C | 24% | 1008.6 hPa | 0 mm | - | 233 W/m² | - |
| 1778195369 | 20.56° C | 22% | 1008.4 hPa | 0 mm | - | 246 W/m² | - |
| 1778195067 | 21.11° C | 22% | 1008.7 hPa | 0 mm | - | 260 W/m² | - |
| 1778194766 | 21.67° C | 23% | 1008.7 hPa | 0 mm | - | 275 W/m² | - |
| 1778194458 | 20.56° C | 24% | 1008.7 hPa | 0 mm | - | 289 W/m² | - |
| 1778194154 | 21.11° C | 22% | 1008.7 hPa | 0 mm | - | 304 W/m² | - |
| 1778193850 | 20.56° C | 24% | 1008.5 hPa | 0 mm | - | 321 W/m² | - |
| 1778193547 | 20.56° C | 22% | 1008.7 hPa | 0 mm | - | 336 W/m² | - |
| 1778193243 | 21.11° C | 23% | 1008.7 hPa | 0 mm | - | 348 W/m² | - |
| 1778192939 | 21.11° C | 22% | 1008.5 hPa | 0 mm | - | 366 W/m² | - |
| 1778192630 | 21.11° C | 22% | 1008.7 hPa | 0 mm | - | 382 W/m² | - |
| 1778192327 | 20.56° C | 23% | 1008.6 hPa | 0 mm | - | 396 W/m² | - |
| 1778192024 | 20.56° C | 23% | 1008.7 hPa | 0 mm | - | 411 W/m² | - |
| 1778191719 | 21.67° C | 24% | 1008.6 hPa | 0 mm | - | 426 W/m² | - |
* Rain latest hour (hover to see other rain measurements)
** Current wind speed in m/s (hover to see current wind gust speed)